period_start,C,m1,H,J0,J1,J2,J3,J4,J5,JA,JB,JC,JD,JJ,JK,JN,#
2017-07-18 00:03:24,0.00,0.12,0.00,24.50,28.94,31.88,13.83,44.75,1011.73,2025.00,3506.00,3041.17,3489.83,599.71,589.96,9.61,0000 0000 0000 0000 000000
2017-07-18 00:08:25,0.01,0.12,0.00,24.47,28.92,31.86,13.83,44.73,1011.73,2025.00,3505.98,3041.01,3489.22,600.01,590.18,9.66,0000 0000 0000 0000 000000
2017-07-18 00:13:26,0.00,0.12,0.00,24.47,28.92,31.83,13.80,44.78,1011.73,2025.00,3505.83,3041.00,3489.07,600.03,590.33,9.71,0000 0000 0000 0000 000000
2017-07-18 00:18:27,0.00,0.12,0.00,24.45,28.90,31.86,13.86,44.72,1011.73,2025.00,3505.84,3041.01,3489.03,600.30,590.54,9.76,0000 0000 0000 0000 000000
2017-07-18 00:23:29,0.00,0.12,0.00,24.44,28.90,31.84,13.81,44.75,1011.74,2025.01,3505.87,3041.02,3489.08,599.88,590.18,9.81,0000 0000 0000 0000 000000
2017-07-18 00:28:30,0.01,0.12,0.00,24.43,28.90,31.81,13.79,44.75,1011.73,2025.01,3505.69,3041.02,3489.03,599.83,590.20,9.86,0000 0000 0000 0000 000000
2017-07-18 00:33:31,0.01,0.12,0.00,24.42,28.88,31.78,13.86,44.75,1011.82,2025.01,3505.04,3040.97,3488.93,600.30,590.72,9.91,0000 0000 0000 0000 000000
2017-07-18 00:38:32,0.01,0.12,0.00,24.41,28.87,31.81,13.77,44.73,1011.92,2025.03,3504.99,3040.90,3488.70,599.68,590.20,9.96,0000 0000 0000 0000 000000
2017-07-18 00:43:33,0.01,0.12,0.00,24.40,28.86,31.80,13.87,45.13,1011.99,2025.01,3504.97,3040.71,3488.14,599.95,590.45,10.01,0000 0000 0000 0000 000000
2017-07-18 00:48:34,0.00,0.12,0.00,24.39,28.85,31.77,13.84,44.83,1012.11,2025.03,3504.97,3040.89,3488.17,599.82,590.42,10.06,0000 0000 0000 0000 000000
2017-07-18 00:53:36,-0.00,0.12,0.00,24.37,28.85,31.78,13.77,44.89,1011.77,2025.05,3504.98,3040.88,3488.05,599.76,590.22,10.11,0000 0000 0000 0000 000000
2017-07-18 00:58:37,-0.00,0.12,0.00,24.36,28.82,31.73,13.73,45.01,1011.71,2025.03,3504.99,3040.97,3488.10,599.78,590.26,10.16,0000 0000 0000 0000 000000
2017-07-18 01:03:38,0.02,0.12,0.00,24.35,28.82,31.72,13.83,44.98,1011.70,2025.20,3504.99,3040.97,3488.46,600.12,590.57,10.21,0000 0000 0000 0000 000000
2017-07-18 01:08:40,0.00,0.12,0.00,24.33,28.81,31.71,13.83,44.67,1011.73,2025.39,3505.00,3040.99,3488.76,599.98,590.49,10.26,0000 0000 0000 0000 000000
2017-07-18 01:13:41,-0.01,0.12,0.00,24.32,28.80,31.70,13.87,44.83,1011.73,2025.32,3505.01,3040.99,3488.87,600.12,590.64,10.31,0000 0000 0000 0000 000000
2017-07-18 01:18:42,0.00,0.12,0.00,24.31,28.79,31.66,13.78,45.01,1011.74,2025.32,3505.00,3040.99,3488.64,600.24,590.84,10.36,0000 0000 0000 0000 000000
2017-07-18 01:23:44,-0.01,0.12,0.00,24.29,28.77,31.67,13.89,45.45,1011.75,2025.11,3505.00,3040.99,3488.47,600.01,590.73,10.41,0000 0000 0000 0000 000000
2017-07-18 01:28:45,0.00,0.12,0.00,24.29,28.77,31.69,13.85,45.53,1011.74,2025.18,3505.00,3040.99,3488.58,600.27,590.82,10.46,0000 0000 0000 0000 000000
2017-07-18 01:33:46,0.01,0.12,0.00,24.28,28.75,31.66,13.81,45.43,1011.74,2025.25,3505.00,3040.99,3488.70,599.85,590.37,10.51,0000 0000 0000 0000 000000
2017-07-18 01:38:48,0.02,0.12,0.00,24.27,28.75,31.67,13.93,45.43,1011.74,2025.44,3504.99,3040.99,3488.81,600.07,590.78,10.56,0000 0000 0000 0000 000000
2017-07-18 01:43:49,0.01,0.12,0.00,24.25,28.74,31.65,13.86,45.41,1011.75,2025.50,3504.99,3040.99,3488.76,599.87,590.56,10.61,0000 0000 0000 0000 000000
2017-07-18 01:48:50,0.02,0.13,0.00,24.25,28.72,31.64,13.76,45.46,1011.75,2025.82,3505.00,3041.00,3488.96,600.03,590.71,10.66,0000 0000 0000 0000 000000
2017-07-18 01:53:51,0.00,0.13,0.00,24.25,28.72,31.62,13.87,45.27,1011.74,2025.93,3505.01,3041.00,3488.98,599.58,590.33,10.71,0000 0000 0000 0000 000000
2017-07-18 01:58:53,-0.00,0.13,0.00,24.25,28.71,31.62,13.81,45.50,1011.74,2025.95,3505.02,3041.01,3488.98,599.68,590.41,10.76,0000 0000 0000 0000 000000
2017-07-18 02:03:54,-0.00,0.13,0.00,24.27,28.70,31.62,13.88,45.44,1011.74,2025.96,3505.01,3041.00,3488.96,600.02,590.67,10.81,0000 0000 0000 0000 000000
2017-07-18 02:08:55,0.00,0.13,0.00,24.27,28.70,31.60,13.79,45.48,1011.74,2025.97,3505.00,3041.00,3488.86,599.85,590.54,10.86,0000 0000 0000 0000 000000
2017-07-18 02:13:56,0.00,0.13,0.00,24.27,28.69,31.61,13.78,45.58,1011.73,2025.99,3505.00,3041.00,3488.57,600.11,590.69,10.91,0000 0000 0000 0000 000000
2017-07-18 02:18:58,0.00,0.13,0.00,24.27,28.68,31.60,13.89,45.34,1011.73,2025.98,3504.98,3041.00,3488.11,600.62,591.11,10.96,0000 0000 0000 0000 000000
2017-07-18 02:23:59,0.00,0.13,0.00,24.29,28.67,31.59,13.68,45.13,1011.73,2025.99,3504.95,3040.96,3488.02,599.61,590.21,11.01,0000 0000 0000 0000 000000
2017-07-18 02:29:00,-0.00,0.13,0.00,24.27,28.67,31.58,13.72,45.21,1011.73,2025.96,3504.98,3040.99,3488.00,599.28,590.04,11.06,0000 0000 0000 0000 000000
2017-07-18 02:34:02,0.00,0.13,0.00,24.28,28.67,31.59,13.86,45.73,1011.74,2025.98,3504.94,3040.98,3488.00,599.93,590.71,11.11,0000 0000 0000 0000 000000
2017-07-18 02:39:03,0.02,0.13,0.00,24.28,28.67,31.58,13.76,45.24,1011.75,2025.99,3504.44,3040.67,3487.94,599.51,590.31,11.17,0000 0000 0000 0000 000000
2017-07-18 02:44:04,0.16,0.14,0.00,24.27,28.67,31.58,13.86,45.39,1011.75,2025.98,3501.72,3038.50,3485.59,600.29,590.93,11.22,0000 0000 0000 0000 000000
2017-07-18 02:49:05,0.13,0.14,0.00,24.27,28.66,31.57,13.90,45.44,1011.75,2025.98,3498.62,3036.19,3482.95,600.30,590.88,11.27,0000 0000 0000 0000 000000
2017-07-18 02:54:07,0.04,0.15,0.00,24.29,28.65,31.59,13.80,45.31,1011.77,2025.97,3497.25,3035.29,3482.03,599.51,590.12,11.32,0000 0000 0000 0000 000000
2017-07-18 02:59:08,0.00,0.15,0.00,24.28,28.65,31.59,13.85,45.17,1011.75,2025.99,3496.98,3035.00,3481.97,599.88,590.62,11.37,0000 0000 0000 0000 000000
2017-07-18 03:04:09,0.04,0.15,0.00,24.27,28.65,31.56,13.91,45.38,1011.73,2025.99,3496.33,3034.74,3481.21,600.57,591.15,11.42,0000 0000 0000 0000 000000
2017-07-18 03:09:11,0.11,0.15,0.00,24.29,28.65,31.59,13.83,45.17,1011.73,2025.99,3494.95,3033.17,3479.65,600.04,590.63,11.47,0000 0000 0000 0000 000000
2017-07-18 03:14:12,0.05,0.16,0.00,24.30,28.65,31.58,13.91,45.17,1011.74,2025.99,3493.41,3031.83,3478.03,600.80,591.46,11.52,0000 0000 0000 0000 000000
2017-07-18 03:19:13,0.02,0.16,0.00,24.30,28.65,31.57,13.79,45.11,1011.74,2025.99,3493.00,3031.18,3477.55,599.19,590.05,11.57,0000 0000 0000 0000 000000
2017-07-18 03:24:14,0.02,0.16,0.00,24.32,28.65,31.58,13.88,45.58,1011.74,2025.99,3492.73,3030.88,3476.91,600.31,590.85,11.62,0000 0000 0000 0000 000000
2017-07-18 03:29:16,0.14,0.16,0.00,24.32,28.65,31.58,13.92,45.57,1011.73,2025.99,3490.19,3029.12,3474.83,600.32,590.80,11.67,0000 0000 0000 0000 000000
2017-07-18 03:34:17,0.06,0.17,0.00,24.32,28.65,31.58,13.77,44.80,1011.73,2025.99,3488.07,3027.71,3473.08,599.40,589.97,11.72,0000 0000 0000 0000 000000
2017-07-18 03:39:18,0.01,0.17,0.00,24.33,28.65,31.58,13.80,44.81,1011.73,2025.99,3488.00,3027.17,3473.00,600.38,590.90,11.77,0000 0000 0000 0000 000000
2017-07-18 03:44:19,0.03,0.17,0.00,24.34,28.65,31.59,13.78,44.98,1011.73,2025.99,3487.37,3026.99,3472.47,599.75,590.25,11.82,0000 0000 0000 0000 000000
2017-07-18 03:49:20,0.00,0.17,0.00,24.35,28.65,31.61,13.83,44.58,1011.73,2026.00,3487.00,3026.83,3472.01,599.89,590.43,11.87,0000 0000 0000 0000 000000
2017-07-18 03:54:22,0.03,0.17,0.00,24.36,28.65,31.60,13.85,44.92,1011.73,2026.00,3486.56,3026.12,3471.87,600.39,590.80,11.92,0000 0000 0000 0000 000000
2017-07-18 03:59:23,0.01,0.17,0.00,24.37,28.66,31.59,13.76,44.75,1011.72,2026.00,3486.03,3026.00,3471.20,599.69,590.13,11.97,0000 0000 0000 0000 000000
2017-07-18 04:04:24,0.00,0.17,0.00,24.37,28.67,31.59,13.82,44.50,1011.73,2026.00,3486.01,3025.98,3471.00,600.09,590.52,12.02,0000 0000 0000 0000 000000
2017-07-18 04:09:25,0.00,0.17,0.00,24.38,28.67,31.60,13.91,45.37,1011.73,2026.00,3485.98,3025.92,3470.99,600.84,591.28,12.07,0000 0000 0000 0000 000000
2017-07-18 04:14:27,0.05,0.18,0.00,24.38,28.67,31.60,13.81,45.58,1011.71,2025.99,3485.32,3025.24,3470.41,599.77,590.19,12.12,0000 0000 0000 0000 000000
2017-07-18 04:19:29,0.00,0.18,0.00,24.40,28.67,31.61,13.81,45.45,1011.73,2025.99,3485.00,3025.01,3470.01,600.15,590.40,12.17,0000 0000 0000 0000 000000
2017-07-18 04:24:30,0.01,0.18,0.00,24.40,28.67,31.62,13.82,45.42,1011.73,2025.99,3484.49,3024.99,3469.99,600.21,590.54,12.22,0000 0000 0000 0000 000000
2017-07-18 04:29:31,0.00,0.18,0.00,24.41,28.69,31.62,13.86,44.98,1011.73,2025.99,3484.01,3024.96,3469.96,600.40,590.87,12.27,0000 0000 0000 0000 000000
2017-07-18 04:34:32,0.03,0.18,0.00,24.41,28.70,31.62,13.84,45.17,1011.73,2025.99,3483.99,3024.42,3469.26,599.84,590.50,12.32,0000 0000 0000 0000 000000
2017-07-18 04:39:34,-0.00,0.18,0.00,24.42,28.70,31.63,13.81,44.81,1011.73,2025.99,3483.98,3024.25,3469.03,600.06,590.42,12.37,0000 0000 0000 0000 000000
2017-07-18 04:44:35,0.00,0.18,0.00,24.42,28.70,31.64,13.83,44.65,1011.73,2025.99,3483.97,3024.26,3469.01,599.95,590.34,12.42,0000 0000 0000 0000 000000
2017-07-18 04:49:36,0.00,0.18,0.00,24.43,28.70,31.65,13.88,45.20,1011.71,2025.98,3483.88,3024.08,3469.00,600.45,590.74,12.47,0000 0000 0000 0000 000000
2017-07-18 04:54:37,0.01,0.18,0.00,24.44,28.71,31.66,13.79,44.95,1011.73,2025.98,3483.10,3024.00,3468.99,600.04,590.21,12.52,0000 0000 0000 0000 000000
2017-07-18 04:59:38,0.00,0.18,0.00,24.45,28.72,31.67,13.74,44.72,1011.73,2025.99,3483.05,3024.00,3468.97,599.40,589.61,12.57,0000 0000 0000 0000 000000
2017-07-18 05:04:39,0.00,0.18,0.00,24.45,28.72,31.66,13.71,44.69,1011.73,2025.99,3483.01,3024.00,3468.96,600.14,590.47,12.62,0000 0000 0000 0000 000000
2017-07-18 05:09:40,0.00,0.18,0.00,24.45,28.72,31.66,13.81,44.53,1011.73,2025.99,3483.01,3024.00,3468.95,600.20,590.62,12.67,0000 0000 0000 0000 000000
2017-07-18 05:14:41,0.00,0.18,0.00,24.45,28.72,31.69,13.82,44.71,1011.73,2025.99,3483.02,3024.00,3468.95,600.01,590.30,12.72,0000 0000 0000 0000 000000
2017-07-18 05:19:43,0.00,0.18,0.00,24.45,28.74,31.69,13.81,44.55,1011.73,2025.99,3483.01,3024.00,3468.81,599.90,590.14,12.77,0000 0000 0000 0000 000000
2017-07-18 05:24:44,0.00,0.18,0.00,24.47,28.75,31.69,13.95,45.29,1011.73,2025.99,3483.00,3024.00,3468.46,601.31,591.52,12.82,0000 0000 0000 0000 000000
2017-07-18 05:29:46,0.00,0.18,0.00,24.47,28.75,31.68,13.79,44.99,1011.73,2025.98,3482.99,3023.99,3468.07,599.40,589.77,12.87,0000 0000 0000 0000 000000
2017-07-18 05:34:47,0.00,0.18,0.00,24.46,28.75,31.70,13.83,44.52,1011.73,2025.98,3482.99,3023.99,3468.01,599.92,590.24,12.92,0000 0000 0000 0000 000000
2017-07-18 05:39:48,0.00,0.18,0.00,24.45,28.75,31.71,13.79,44.60,1011.73,2025.97,3482.97,3023.98,3468.00,599.83,590.08,12.97,0000 0000 0000 0000 000000
2017-07-18 05:44:49,0.00,0.18,0.00,24.45,28.75,31.68,13.83,44.68,1011.73,2025.96,3482.77,3023.95,3468.00,600.47,590.75,13.02,0000 0000 0000 0000 000000
2017-07-18 05:49:51,0.01,0.18,0.00,24.45,28.75,31.69,13.83,44.65,1011.73,2025.96,3482.42,3023.89,3468.00,599.89,590.24,13.07,0000 0000 0000 0000 000000
2017-07-18 05:54:52,0.00,0.18,0.00,24.46,28.75,31.69,13.79,44.60,1011.73,2025.93,3482.16,3023.76,3467.98,600.12,590.35,13.12,0000 0000 0000 0000 000000
2017-07-18 05:59:54,0.00,0.18,0.00,24.44,28.75,31.71,13.84,45.11,1011.73,2025.92,3482.22,3023.71,3467.96,600.59,590.88,13.17,0000 0000 0000 0000 000000
2017-07-18 06:04:55,0.00,0.18,0.00,24.44,28.75,31.67,13.78,44.61,1011.71,2025.90,3482.04,3023.59,3467.93,599.75,590.01,13.22,0000 0000 0000 0000 000000
2017-07-18 06:09:56,-0.00,0.18,0.00,24.42,28.75,31.68,13.81,44.93,1011.70,2025.81,3482.01,3023.43,3467.85,600.40,590.63,13.27,0000 0000 0000 0000 000000
2017-07-18 06:14:57,0.01,0.18,0.00,24.42,28.75,31.68,13.79,44.83,1011.72,2025.86,3482.00,3023.24,3467.75,599.79,590.11,13.32,0000 0000 0000 0000 000000
2017-07-18 06:19:59,-0.00,0.18,0.00,24.42,28.75,31.69,13.82,44.79,1011.72,2025.77,3482.00,3023.19,3467.53,599.74,590.10,13.37,0000 0000 0000 0000 000000
2017-07-18 06:25:00,0.01,0.18,0.00,24.42,28.75,31.67,13.82,44.60,1011.72,2025.83,3482.00,3023.15,3467.37,599.83,590.22,13.42,0000 0000 0000 0000 000000
2017-07-18 06:30:01,0.01,0.18,0.00,24.42,28.75,31.67,13.83,44.77,1011.70,2025.98,3481.99,3023.17,3467.67,599.89,590.32,13.48,0000 0000 0000 0000 000000
2017-07-18 06:35:03,0.12,0.18,0.00,24.41,28.75,31.68,13.82,44.64,1011.72,2025.97,3480.50,3022.30,3466.39,599.93,590.28,13.53,0000 0000 0000 0000 000000
2017-07-18 06:40:04,0.12,0.20,0.00,24.40,28.75,31.67,13.82,45.27,1011.71,2025.85,3476.25,3019.43,3463.14,600.34,590.72,13.58,0000 0000 0000 0000 000000
2017-07-18 06:45:05,-0.01,0.20,0.00,24.40,28.75,31.67,13.73,45.03,1011.73,2025.68,3476.00,3019.05,3462.97,600.22,590.57,13.63,0000 0000 0000 0000 000000
2017-07-18 06:50:07,0.02,0.20,0.00,24.39,28.75,31.66,13.83,45.04,1011.70,2025.83,3476.00,3019.07,3462.97,600.60,590.86,13.68,0000 0000 0000 0000 000000
2017-07-18 06:55:08,-0.04,0.20,0.00,24.37,28.74,31.66,13.79,45.31,1011.43,2025.60,3476.00,3019.07,3462.93,598.96,589.24,13.73,0000 0000 0000 0000 000000
2017-07-18 07:00:09,0.01,0.20,0.00,24.37,28.73,31.65,13.76,44.82,1011.35,2025.47,3476.00,3019.04,3462.88,599.76,589.99,13.78,0000 0000 0000 0000 000000
2017-07-18 07:05:10,-0.00,0.20,0.00,24.37,28.72,31.67,13.84,45.25,1011.31,2025.57,3475.99,3019.04,3462.93,600.23,590.53,13.83,0000 0000 0000 0000 000000
2017-07-18 07:10:11,0.01,0.20,0.00,24.37,28.72,31.67,13.86,45.33,1011.31,2025.52,3475.98,3019.04,3462.71,600.03,590.04,13.88,0000 0000 0000 0000 000000
2017-07-18 07:15:13,0.10,0.20,0.00,24.36,28.72,31.68,13.84,44.94,1011.31,2025.82,3474.83,3018.44,3461.82,599.18,589.43,13.93,0000 0000 0000 0000 000000
2017-07-18 07:20:14,0.43,0.22,0.00,24.35,28.72,31.67,13.84,45.10,1011.40,2025.94,3466.49,3012.43,3455.09,600.47,590.73,13.98,0000 0000 0000 0000 000000
2017-07-18 07:25:15,0.02,0.22,0.00,24.35,28.72,31.65,13.80,45.18,1011.53,2025.90,3464.76,3011.04,3453.71,599.58,589.97,14.03,0000 0000 0000 0000 000000
2017-07-18 07:30:16,0.17,0.23,0.00,24.34,28.72,31.65,13.78,44.86,1011.60,2025.89,3462.10,3009.20,3451.24,599.60,589.95,14.08,0000 0000 0000 0000 000000
2017-07-18 07:35:17,0.07,0.23,0.00,24.35,28.71,31.64,13.88,45.18,1011.46,2025.95,3459.72,3007.72,3449.49,600.61,590.88,14.13,0000 0000 0000 0000 000000
2017-07-18 07:40:19,0.29,0.24,0.00,24.34,28.70,31.62,13.85,45.55,1011.37,2025.88,3454.97,3004.44,3445.58,600.07,590.35,14.18,0000 0000 0000 0000 000000
2017-07-18 07:45:20,0.15,0.26,0.00,24.34,28.70,31.62,13.77,45.13,1011.28,2025.82,3449.93,3000.45,3441.18,599.60,589.87,14.23,0000 0000 0000 0000 000000
2017-07-18 07:50:21,0.01,0.26,0.00,24.32,28.70,31.63,13.80,45.10,1011.26,2025.84,3449.58,3000.12,3441.00,599.79,590.16,14.28,0000 0000 0000 0000 000000
2017-07-18 07:55:23,-0.01,0.26,0.00,24.32,28.70,31.62,13.79,44.83,1011.26,2025.92,3449.81,3000.37,3441.00,599.89,590.21,14.33,0000 0000 0000 0000 000000
2017-07-18 08:00:24,0.01,0.26,0.00,24.32,28.70,31.60,13.95,45.27,1011.26,2025.93,3449.33,3000.22,3441.00,600.59,590.90,14.38,0000 0000 0000 0000 000000
2017-07-18 08:05:25,-0.01,0.26,0.00,24.32,28.69,31.62,13.87,44.97,1011.25,2025.97,3449.24,3000.24,3441.00,599.78,590.03,14.43,0000 0000 0000 0000 000000
2017-07-18 08:10:26,0.00,0.26,0.00,24.32,28.68,31.61,13.86,44.72,1011.25,2025.97,3449.21,3000.35,3441.00,600.45,590.74,14.48,0000 0000 0000 0000 000000
2017-07-18 08:15:28,-0.01,0.26,0.00,24.30,28.67,31.59,13.82,44.67,1011.25,2025.97,3449.41,3000.65,3441.00,599.77,590.11,14.53,0000 0000 0000 0000 000000
2017-07-18 08:20:29,0.00,0.26,0.00,24.30,28.67,31.61,13.83,44.58,1011.26,2025.98,3449.46,3000.77,3441.00,600.16,590.47,14.58,0000 0000 0000 0000 000000
2017-07-18 08:25:30,0.07,0.26,0.00,24.29,28.67,31.60,13.80,44.92,1011.27,2025.98,3448.41,2999.94,3440.33,600.44,590.71,14.63,0000 0000 0000 0000 000000
2017-07-18 08:30:32,1.06,0.29,0.00,24.27,28.67,31.61,13.81,45.19,1011.27,2025.98,3433.95,2988.42,3427.70,599.98,590.32,14.68,0000 0000 0000 0000 000000
2017-07-18 08:35:33,0.43,0.33,0.00,24.27,28.66,31.60,13.91,45.58,1011.28,2025.96,3419.66,2977.03,3415.06,600.33,590.78,14.73,0000 0000 0000 0000 000000
2017-07-18 08:40:35,0.20,0.35,0.00,24.28,28.65,31.60,13.88,45.63,1011.25,2025.92,3414.42,2973.15,3410.50,600.52,590.87,14.78,0000 0000 0000 0000 000000
2017-07-18 08:45:36,-0.00,0.35,0.00,24.26,28.65,31.59,13.74,45.26,1011.27,2025.94,3414.28,2973.00,3410.48,599.09,589.34,14.83,0000 0000 0000 0000 000000
2017-07-18 08:50:37,0.02,0.35,0.00,24.25,28.65,31.59,13.83,45.33,1011.25,2025.92,3413.85,2972.58,3409.99,599.61,589.96,14.88,0000 0000 0000 0000 000000
2017-07-18 08:55:39,0.35,0.36,0.00,24.24,28.64,31.58,13.91,45.51,1011.25,2025.92,3407.78,2968.33,3405.41,600.43,590.89,14.93,0000 0000 0000 0000 000000
2017-07-18 09:00:40,0.35,0.38,0.00,24.22,28.62,31.56,13.85,45.37,1011.25,2025.94,3400.77,2963.48,3400.02,600.28,590.64,14.98,0000 0000 0000 0000 000000
2017-07-18 09:05:41,1.74,0.44,0.00,24.22,28.62,31.55,13.77,45.20,1011.25,2025.91,3372.11,2942.48,3376.92,599.83,590.25,15.03,0000 0000 0000 0000 000000
2017-07-18 09:10:42,0.14,0.48,0.00,24.21,28.62,31.57,13.73,45.33,1011.25,2025.91,3360.02,2933.48,3367.11,600.00,590.46,15.08,0000 0000 0000 0000 000000
2017-07-18 09:15:44,2.19,0.52,0.00,24.20,28.62,31.55,13.85,45.42,1011.25,2025.90,3332.48,2913.47,3344.67,600.01,590.46,15.13,0000 0000 0000 0000 000000
2017-07-18 09:20:45,1.89,0.66,0.00,24.17,28.60,31.55,13.84,45.51,1011.25,2025.74,3284.03,2877.82,3305.09,599.73,590.29,15.18,0000 0000 0000 0000 000000
2017-07-18 09:25:46,0.74,0.70,0.00,24.17,28.60,31.54,13.85,45.19,1011.26,2025.82,3268.73,2866.24,3292.20,600.26,590.82,15.23,0000 0000 0000 0000 000000
2017-07-18 09:30:48,2.06,0.78,0.77,24.17,28.60,31.53,13.90,45.77,1011.25,2025.60,3235.32,2839.93,3263.22,600.41,590.97,15.28,0000 0000 0000 0000 000000
2017-07-18 09:35:49,0.72,0.85,1.00,24.15,28.58,31.53,13.90,45.20,1011.25,2025.55,3213.80,2823.55,3245.26,600.20,590.81,15.33,0000 0000 0000 0000 000000
2017-07-18 09:40:50,0.21,0.87,1.00,24.14,28.57,31.49,13.89,45.10,1011.25,2025.76,3208.73,2819.76,3241.04,599.97,590.58,15.38,0000 0000 0000 0000 000000
2017-07-18 09:45:51,0.05,0.88,1.00,24.12,28.57,31.48,13.78,45.33,1011.25,2025.87,3207.30,2818.91,3240.00,600.12,590.82,15.43,0000 0000 0000 0000 000000
2017-07-18 09:50:52,-0.01,0.88,1.00,24.11,28.55,31.48,13.87,45.33,1011.25,2025.76,3207.00,2818.84,3239.94,599.91,590.70,15.48,0000 0000 0000 0000 000000
2017-07-18 09:55:54,0.01,0.88,1.00,24.10,28.55,31.48,13.77,44.92,1011.25,2025.96,3207.04,2818.95,3239.97,599.58,590.28,15.53,0000 0000 0000 0000 000000
2017-07-18 10:00:55,0.00,0.88,0.23,24.10,28.54,31.48,13.88,45.54,1011.25,2025.96,3207.01,2818.94,3239.92,600.07,590.74,15.58,0000 0000 0000 0000 000000
2017-07-18 10:05:57,0.01,0.88,0.00,24.09,28.52,31.47,13.79,45.52,1011.25,2025.97,3207.00,2818.77,3239.71,599.93,590.75,15.63,0000 0000 0000 0000 000000
2017-07-18 10:10:58,0.00,0.88,0.00,24.06,28.52,31.44,13.85,45.25,1011.25,2025.98,3206.99,2818.68,3239.52,599.71,590.59,15.68,0000 0000 0000 0000 000000
2017-07-18 10:16:00,1.45,0.91,0.00,24.04,28.52,31.43,13.83,44.82,1011.25,2025.98,3191.56,2805.34,3224.81,599.69,590.51,15.73,0000 0000 0000 0000 000000
2017-07-18 10:21:01,0.26,0.96,0.00,24.03,28.50,31.44,13.85,45.53,1011.25,2025.97,3178.19,2793.76,3212.18,600.57,591.39,15.79,0000 0000 0000 0000 000000
2017-07-18 10:26:03,-0.01,0.96,0.00,24.02,28.50,31.41,13.75,45.09,1011.23,2025.99,3177.99,2793.67,3211.99,599.44,590.16,15.84,0000 0000 0000 0000 000000
2017-07-18 10:31:04,-0.00,0.96,0.00,24.01,28.48,31.40,13.73,45.27,1011.22,2025.99,3177.90,2793.86,3211.91,599.64,590.51,15.89,0000 0000 0000 0000 000000
2017-07-18 10:36:05,0.35,0.97,0.00,24.00,28.47,31.38,13.86,45.15,1011.20,2025.99,3173.71,2790.15,3208.17,599.77,590.61,15.94,0000 0000 0000 0000 000000
2017-07-18 10:41:07,0.06,0.98,0.00,23.98,28.46,31.38,13.80,45.17,1011.18,2025.99,3170.97,2787.91,3205.27,599.72,590.57,15.99,0000 0000 0000 0000 000000
2017-07-18 10:46:08,-0.00,0.98,0.00,23.96,28.45,31.36,13.79,44.82,1011.11,2025.99,3170.96,2787.91,3205.28,599.73,590.62,16.04,0000 0000 0000 0000 000000
2017-07-18 10:51:09,-0.01,0.98,0.00,23.95,28.44,31.34,13.81,44.78,1011.20,2026.00,3170.97,2787.97,3205.76,600.14,591.09,16.09,0000 0000 0000 0000 000000
2017-07-18 10:56:11,-0.00,0.98,0.00,23.94,28.42,31.34,13.79,44.75,1011.19,2026.03,3170.97,2787.98,3205.71,600.05,590.99,16.14,0000 0000 0000 0000 000000
2017-07-18 11:01:12,0.04,0.99,0.00,23.92,28.41,31.32,13.87,45.36,1011.21,2026.03,3170.45,2787.61,3205.24,600.60,591.76,16.19,0000 0000 0000 0000 000000
2017-07-18 11:06:13,-0.00,0.99,0.00,23.91,28.40,31.32,13.83,45.22,1011.19,2026.03,3170.06,2787.35,3205.04,599.46,590.42,16.24,0000 0000 0000 0000 000000
2017-07-18 11:11:14,-0.01,0.99,0.00,23.90,28.39,31.30,13.84,44.97,1011.14,2026.14,3170.37,2787.82,3205.22,599.46,590.50,16.29,0000 0000 0000 0000 000000
2017-07-18 11:16:16,0.04,0.99,0.00,23.88,28.37,31.30,13.84,44.94,1011.10,2026.57,3170.89,2787.98,3205.81,599.79,590.83,16.34,0000 0000 0000 0000 000000
2017-07-18 11:21:17,0.01,0.99,0.00,23.87,28.36,31.27,13.90,44.81,1011.09,2026.91,3170.98,2787.99,3205.98,600.35,591.36,16.39,0000 0000 0000 0000 000000
2017-07-18 11:26:18,0.00,0.99,0.00,23.86,28.35,31.25,13.87,44.81,1010.97,2026.93,3170.99,2787.99,3205.99,600.06,591.01,16.44,0000 0000 0000 0000 000000
2017-07-18 11:31:19,0.00,0.99,0.00,23.85,28.33,31.22,13.79,44.91,1010.89,2026.95,3170.99,2787.99,3205.99,599.89,590.93,16.49,0000 0000 0000 0000 000000
2017-07-18 11:36:20,0.00,0.99,0.00,23.83,28.32,31.21,13.89,45.01,1010.79,2026.98,3170.99,2788.01,3205.99,600.14,591.08,16.54,0000 0000 0000 0000 000000
2017-07-18 11:41:21,0.00,0.99,0.00,23.82,28.30,31.20,13.81,44.83,1010.78,2026.99,3170.99,2788.03,3206.00,599.98,591.07,16.59,0000 0000 0000 0000 000000
2017-07-18 11:46:23,0.00,0.99,0.00,23.80,28.30,31.20,13.82,45.11,1010.80,2026.99,3171.00,2788.07,3206.05,599.94,591.00,16.64,0000 0000 0000 0000 000000
2017-07-18 11:51:24,-0.01,0.99,0.00,23.78,28.27,31.18,13.85,44.81,1010.76,2026.99,3171.02,2788.36,3206.19,599.68,590.76,16.69,0000 0000 0000 0000 000000
2017-07-18 11:56:26,-0.01,0.99,0.00,23.76,28.26,31.18,13.83,44.83,1010.77,2026.99,3171.03,2788.76,3206.54,599.87,590.91,16.74,0000 0000 0000 0000 000000
2017-07-18 12:01:26,-0.01,0.99,0.00,23.75,28.25,31.17,13.79,44.82,1010.76,2027.00,3171.14,2788.92,3206.91,599.70,590.79,16.79,0000 0000 0000 0000 000000
2017-07-18 12:06:28,-0.00,0.99,0.00,23.73,28.23,31.15,13.86,44.83,1010.77,2027.01,3171.43,2788.98,3206.98,600.04,591.11,16.84,0000 0000 0000 0000 000000
2017-07-18 12:11:29,-0.00,0.99,0.00,23.72,28.22,31.13,13.84,44.97,1010.76,2027.07,3171.83,2788.99,3206.98,600.00,591.21,16.89,0000 0000 0000 0000 000000
2017-07-18 12:16:30,0.00,0.99,0.00,23.69,28.20,31.10,13.87,44.90,1010.76,2027.07,3171.90,2788.99,3206.99,599.84,591.00,16.94,0000 0000 0000 0000 000000
2017-07-18 12:21:31,0.01,0.99,0.00,23.67,28.20,31.08,13.86,45.02,1010.76,2027.15,3171.92,2788.98,3206.98,600.70,591.81,16.99,0000 0000 0000 0000 000000
2017-07-18 12:26:32,-0.01,0.99,0.00,23.66,28.17,31.08,13.88,45.67,1010.76,2027.17,3171.82,2788.97,3206.96,600.55,591.81,17.04,0000 0000 0000 0000 000000
2017-07-18 12:31:33,0.06,0.99,0.00,23.62,28.17,31.07,13.91,45.05,1010.76,2027.56,3171.93,2788.99,3206.99,599.87,591.25,17.09,0000 0000 0000 0000 000000
2017-07-18 12:36:34,0.01,0.99,0.00,23.60,28.15,31.02,13.87,44.92,1010.76,2027.86,3171.95,2788.99,3206.99,600.41,591.81,17.14,0000 0000 0000 0000 000000
2017-07-18 12:41:36,-0.01,0.99,0.00,23.57,28.14,31.02,13.90,44.90,1010.76,2027.82,3171.98,2788.99,3206.99,599.82,591.28,17.19,0000 0000 0000 0000 000000
2017-07-18 12:46:37,0.01,0.99,0.00,23.55,28.12,30.99,13.85,44.92,1010.71,2027.91,3171.99,2788.99,3207.00,599.89,591.36,17.24,0000 0000 0000 0000 000000
2017-07-18 12:51:38,0.00,0.99,0.00,23.54,28.10,30.96,13.82,44.98,1010.74,2027.96,3171.82,2788.89,3206.87,599.84,591.35,17.29,0000 0000 0000 0000 000000
2017-07-18 12:56:39,1.38,1.03,0.00,23.51,28.09,30.93,13.84,44.92,1010.76,2027.98,3152.47,2775.41,3191.47,599.86,591.45,17.34,0000 0000 0000 0000 000000